Location: Ajisawe
(8.4333°N, 4.3833°E)
Time: 22:26:52
(UTC+00:00)

Vanguard 2 Rocket - Pass Details

Date: 21 April 2021
Orbit: 554 x 3326 km, 32.9° (Epoch: 16 May)

Event Time Altitude Azimuth Distance (km) Brightness Sun altitude
Rises 06:50:08 0° 186° (S) 3,880 10.0 18.5°
Reaches altitude 10° 06:54:58 10° 155° (SSE) 3,479 10.1 19.7°
Maximum altitude 06:58:16 12° 134° (SE) 3,678 10.6 20.5°
Drops below altitude 10° 07:02:11 10° 113° (ESE) 4,288 11.4 21.4°
Sets 07:10:08 0° 88° (E) 6,074 12.5 23.4°
